Wetterdaten: Freitag, 06.09.2013
Datum Zeit Temperatur Luftfeuchte Luftdruck Regen Wind Richtung Richtung Taupunkt Windchill Windben
06.09.2013 00:04 12,7 C 89 % 1018,1 hPa 0,0 l/m 0,0 km/h (0 Bft) O-SO 112 10,9 C 12,5 C 0,0 km/h (0 Bft)
06.09.2013 00:09 12,5 C 89 % 1018,1 hPa 0,0 l/m 0,0 km/h (0 Bft) O-SO 112 10,7 C 12,4 C 0,0 km/h (0 Bft)
06.09.2013 00:14 12,3 C 89 % 1018,1 hPa 0,0 l/m 0,0 km/h (0 Bft) O-SO 112 10,5 C 12,3 C 0,0 km/h (0 Bft)
06.09.2013 00:19 12,1 C 89 % 1018,1 hPa 0,0 l/m 0,0 km/h (0 Bft) O-SO 112 10,3 C 12,2 C 0,0 km/h (0 Bft)
06.09.2013 00:24 12,0 C 89 % 1018,1 hPa 0,0 l/m 0,0 km/h (0 Bft) O-SO 112 10,2 C 12,0 C 0,0 km/h (0 Bft)
06.09.2013 00:29 11,9 C 89 % 1018,1 hPa 0,0 l/m 0,0 km/h (0 Bft) O-SO 112 10,1 C 12,0 C 0,0 km/h (0 Bft)
06.09.2013 00:34 12,1 C 89 % 1018,1 hPa 0,0 l/m 0,0 km/h (0 Bft) O-SO 112 10,3 C 11,9 C 0,0 km/h (0 Bft)
06.09.2013 00:39 12,3 C 89 % 1017,9 hPa 0,0 l/m 0,0 km/h (0 Bft) O-SO 112 10,5 C 12,0 C 0,0 km/h (0 Bft)
06.09.2013 00:44 11,9 C 89 % 1017,9 hPa 0,0 l/m 0,0 km/h (0 Bft) O-NO 67 10,1 C 12,1 C 0,0 km/h (0 Bft)
06.09.2013 00:49 12,1 C 89 % 1017,9 hPa 0,0 l/m 0,0 km/h (0 Bft) O-NO 67 10,3 C 12,0 C 1,6 km/h (1 Bft)
06.09.2013 00:54 12,4 C 89 % 1017,9 hPa 0,0 l/m 0,2 km/h (0 Bft) O-NO 67 10,6 C 12,0 C 2,4 km/h (1 Bft)
06.09.2013 00:59 12,4 C 89 % 1017,8 hPa 0,0 l/m 0,3 km/h (0 Bft) O 90 10,6 C 12,1 C 0,0 km/h (0 Bft)
06.09.2013 01:04 11,9 C 90 % 1017,8 hPa 0,0 l/m 0,3 km/h (0 Bft) NO 45 10,3 C 12,0 C 0,0 km/h (0 Bft)
06.09.2013 01:09 11,9 C 90 % 1017,8 hPa 0,0 l/m 0,0 km/h (0 Bft) O-NO 67 10,3 C 11,9 C 0,0 km/h (0 Bft)
06.09.2013 01:14 12,3 C 89 % 1017,8 hPa 0,0 l/m 0,0 km/h (0 Bft) NO 45 10,5 C 12,0 C 0,0 km/h (0 Bft)
06.09.2013 01:19 11,9 C 90 % 1017,6 hPa 0,0 l/m 0,0 km/h (0 Bft) NO 45 10,3 C 11,9 C 0,0 km/h (0 Bft)
06.09.2013 01:24 11,8 C 90 % 1017,6 hPa 0,0 l/m 0,0 km/h (0 Bft) O 90 10,2 C 11,7 C 0,0 km/h (0 Bft)
06.09.2013 01:29 11,8 C 90 % 1017,6 hPa 0,0 l/m 0,0 km/h (0 Bft) O-SO 112 10,2 C 11,7 C 0,0 km/h (0 Bft)
06.09.2013 01:34 11,5 C 90 % 1017,6 hPa 0,0 l/m 0,0 km/h (0 Bft) O-SO 112 9,9 C 11,6 C 0,0 km/h (0 Bft)
06.09.2013 01:39 11,5 C 90 % 1017,4 hPa 0,0 l/m 0,0 km/h (0 Bft) NO 45 9,9 C 11,5 C 0,0 km/h (0 Bft)
06.09.2013 01:44 11,5 C 90 % 1017,4 hPa 0,0 l/m 0,0 km/h (0 Bft) NO 45 9,9 C 11,4 C 0,0 km/h (0 Bft)
06.09.2013 01:49 11,4 C 90 % 1017,4 hPa 0,0 l/m 0,0 km/h (0 Bft) NO 45 9,8 C 11,3 C 0,0 km/h (0 Bft)
06.09.2013 01:54 11,2 C 90 % 1017,4 hPa 0,0 l/m 0,0 km/h (0 Bft) NO 45 9,6 C 11,2 C 0,0 km/h (0 Bft)
06.09.2013 01:59 11,3 C 90 % 1017,2 hPa 0,0 l/m 0,0 km/h (0 Bft) NO 45 9,7 C 11,1 C 0,0 km/h (0 Bft)
06.09.2013 02:04 11,4 C 90 % 1017,2 hPa 0,0 l/m 0,0 km/h (0 Bft) NO 45 9,8 C 11,1 C 0,0 km/h (0 Bft)
06.09.2013 02:09 11,2 C 90 % 1017,2 hPa 0,0 l/m 0,0 km/h (0 Bft) NO 45 9,6 C 11,2 C 0,0 km/h (0 Bft)
06.09.2013 02:14 11,5 C 91 % 1017,2 hPa 0,0 l/m 0,0 km/h (0 Bft) NO 45 10,1 C 11,2 C 0,0 km/h (0 Bft)
06.09.2013 02:19 11,4 C 91 % 1017,0 hPa 0,0 l/m 0,0 km/h (0 Bft) NO 45 10,0 C 11,3 C 0,0 km/h (0 Bft)
06.09.2013 02:24 11,8 C 91 % 1017,0 hPa 0,0 l/m 0,0 km/h (0 Bft) O-NO 67 10,4 C 11,5 C 0,0 km/h (0 Bft)
06.09.2013 02:29 12,1 C 91 % 1017,0 hPa 0,0 l/m 0,5 km/h (0 Bft) NO 45 10,7 C 11,6 C 0,0 km/h (0 Bft)
06.09.2013 02:34 11,9 C 91 % 1017,0 hPa 0,0 l/m 0,6 km/h (0 Bft) O-SO 112 10,5 C 11,7 C 0,0 km/h (0 Bft)
06.09.2013 02:39 11,6 C 91 % 1016,9 hPa 0,0 l/m 0,2 km/h (0 Bft) O-SO 112 10,2 C 11,7 C 0,0 km/h (0 Bft)
06.09.2013 02:44 11,3 C 91 % 1016,9 hPa 0,0 l/m 0,0 km/h (0 Bft) O-NO 67 9,9 C 11,5 C 0,0 km/h (0 Bft)
06.09.2013 02:49 11,2 C 91 % 1016,9 hPa 0,0 l/m 0,0 km/h (0 Bft) NO 45 9,8 C 11,4 C 0,0 km/h (0 Bft)
06.09.2013 02:54 11,2 C 91 % 1016,9 hPa 0,0 l/m 0,0 km/h (0 Bft) NO 45 9,8 C 11,2 C 0,0 km/h (0 Bft)
06.09.2013 02:59 11,2 C 91 % 1016,9 hPa 0,0 l/m 0,0 km/h (0 Bft) NO 45 9,8 C 11,1 C 0,0 km/h (0 Bft)
06.09.2013 03:04 11,1 C 91 % 1016,9 hPa 0,0 l/m 0,0 km/h (0 Bft) NO 45 9,7 C 11,1 C 0,0 km/h (0 Bft)
06.09.2013 03:09 11,0 C 91 % 1016,9 hPa 0,0 l/m 0,0 km/h (0 Bft) N-NO 22 9,6 C 11,2 C 0,0 km/h (0 Bft)
06.09.2013 03:14 11,3 C 91 % 1016,9 hPa 0,0 l/m 0,0 km/h (0 Bft) NO 45 9,9 C 11,1 C 0,0 km/h (0 Bft)
06.09.2013 03:19 11,5 C 91 % 1017,2 hPa 0,0 l/m 0,0 km/h (0 Bft) NO 45 10,1 C 11,2 C 0,0 km/h (0 Bft)
06.09.2013 03:24 11,3 C 91 % 1017,2 hPa 0,0 l/m 0,0 km/h (0 Bft) NO 45 9,9 C 11,3 C 0,0 km/h (0 Bft)
06.09.2013 03:29 11,2 C 91 % 1017,2 hPa 0,0 l/m 0,0 km/h (0 Bft) SO 135 9,8 C 11,3 C 0,0 km/h (0 Bft)
06.09.2013 03:34 11,1 C 91 % 1017,2 hPa 0,0 l/m 0,0 km/h (0 Bft) SO 135 9,7 C 11,2 C 0,0 km/h (0 Bft)
06.09.2013 03:39 10,9 C 91 % 1016,8 hPa 0,0 l/m 0,0 km/h (0 Bft) SO 135 9,5 C 11,0 C 0,0 km/h (0 Bft)
06.09.2013 03:44 10,8 C 91 % 1016,8 hPa 0,0 l/m 0,0 km/h (0 Bft) SO 135 9,4 C 10,8 C 0,0 km/h (0 Bft)
06.09.2013 03:49 10,8 C 91 % 1016,8 hPa 0,0 l/m 0,0 km/h (0 Bft) O-SO 112 9,4 C 10,8 C 0,0 km/h (0 Bft)
06.09.2013 03:54 10,7 C 91 % 1016,8 hPa 0,0 l/m 0,0 km/h (0 Bft) N-NO 22 9,3 C 10,6 C 0,0 km/h (0 Bft)
06.09.2013 03:59 10,8 C 91 % 1016,7 hPa 0,0 l/m 0,0 km/h (0 Bft) N-NO 22 9,4 C 10,8 C 0,0 km/h (0 Bft)
06.09.2013 04:04 10,6 C 91 % 1016,7 hPa 0,0 l/m 0,0 km/h (0 Bft) N-NO 22 9,2 C 10,7 C 0,0 km/h (0 Bft)
06.09.2013 04:09 10,7 C 91 % 1016,7 hPa 0,0 l/m 0,0 km/h (0 Bft) N-NO 22 9,3 C 10,6 C 0,0 km/h (0 Bft)
06.09.2013 04:14 10,7 C 91 % 1016,7 hPa 0,0 l/m 0,0 km/h (0 Bft) N-NO 22 9,3 C 10,8 C 0,0 km/h (0 Bft)
06.09.2013 04:19 10,9 C 92 % 1016,4 hPa 0,0 l/m 0,0 km/h (0 Bft) N-NO 22 9,7 C 10,9 C 0,0 km/h (0 Bft)
06.09.2013 04:24 10,8 C 92 % 1016,4 hPa 0,0 l/m 0,0 km/h (0 Bft) N-NO 22 9,6 C 11,0 C 0,0 km/h (0 Bft)
06.09.2013 04:29 10,9 C 92 % 1016,4 hPa 0,0 l/m 0,0 km/h (0 Bft) N-NO 22 9,7 C 10,8 C 0,0 km/h (0 Bft)
06.09.2013 04:34 11,3 C 92 % 1016,4 hPa 0,0 l/m 0,0 km/h (0 Bft) N-NO 22 10,0 C 11,0 C 0,0 km/h (0 Bft)
06.09.2013 04:39 11,3 C 92 % 1016,2 hPa 0,0 l/m 0,0 km/h (0 Bft) NO 45 10,0 C 11,0 C 0,0 km/h (0 Bft)
06.09.2013 04:44 10,8 C 92 % 1016,2 hPa 0,0 l/m 0,0 km/h (0 Bft) N-NO 22 9,6 C 11,0 C 0,0 km/h (0 Bft)
06.09.2013 04:49 10,9 C 92 % 1016,2 hPa 0,0 l/m 0,0 km/h (0 Bft) N-NO 22 9,7 C 10,9 C 0,0 km/h (0 Bft)
06.09.2013 04:54 10,9 C 92 % 1016,2 hPa 0,0 l/m 0,0 km/h (0 Bft) N-NO 22 9,7 C 10,9 C 0,0 km/h (0 Bft)
06.09.2013 04:59 10,8 C 92 % 1016,4 hPa 0,0 l/m 0,0 km/h (0 Bft) N-NO 22 9,6 C 10,8 C 0,0 km/h (0 Bft)
06.09.2013 05:04 10,5 C 92 % 1016,4 hPa 0,0 l/m 0,0 km/h (0 Bft) N-NO 22 9,3 C 10,7 C 0,0 km/h (0 Bft)
06.09.2013 05:09 10,3 C 92 % 1016,4 hPa 0,0 l/m 0,0 km/h (0 Bft) N-NO 22 9,1 C 10,6 C 0,0 km/h (0 Bft)
06.09.2013 05:14 10,6 C 92 % 1016,4 hPa 0,0 l/m 0,0 km/h (0 Bft) O 90 9,4 C 10,6 C 0,0 km/h (0 Bft)
06.09.2013 05:19 10,5 C 92 % 1016,2 hPa 0,0 l/m 0,0 km/h (0 Bft) NO 45 9,3 C 10,8 C 0,0 km/h (0 Bft)
06.09.2013 05:24 10,3 C 92 % 1016,2 hPa 0,0 l/m 0,0 km/h (0 Bft) N-NO 22 9,1 C 10,8 C 0,0 km/h (0 Bft)
06.09.2013 05:29 10,2 C 92 % 1016,2 hPa 0,0 l/m 0,0 km/h (0 Bft) N-NO 22 9,0 C 10,6 C 0,0 km/h (0 Bft)
06.09.2013 05:34 10,3 C 92 % 1016,2 hPa 0,0 l/m 0,0 km/h (0 Bft) N-NO 22 9,1 C 10,5 C 0,0 km/h (0 Bft)
06.09.2013 05:39 10,5 C 92 % 1016,2 hPa 0,0 l/m 0,0 km/h (0 Bft) N-NO 22 9,3 C 10,5 C 0,0 km/h (0 Bft)
06.09.2013 05:44 10,7 C 92 % 1016,2 hPa 0,0 l/m 0,0 km/h (0 Bft) N-NO 22 9,5 C 10,5 C 0,0 km/h (0 Bft)
06.09.2013 05:49 10,9 C 92 % 1016,2 hPa 0,0 l/m 0,0 km/h (0 Bft) N-NO 22 9,7 C 10,7 C 0,0 km/h (0 Bft)
06.09.2013 05:54 10,8 C 92 % 1016,2 hPa 0,0 l/m 0,0 km/h (0 Bft) NO 45 9,6 C 10,8 C 0,0 km/h (0 Bft)
06.09.2013 05:59 11,0 C 92 % 1016,1 hPa 0,0 l/m 0,0 km/h (0 Bft) NO 45 9,8 C 10,9 C 0,0 km/h (0 Bft)
06.09.2013 06:04 11,0 C 92 % 1016,1 hPa 0,0 l/m 0,0 km/h (0 Bft) NO 45 9,8 C 10,9 C 0,0 km/h (0 Bft)
06.09.2013 06:09 10,8 C 92 % 1016,1 hPa 0,0 l/m 0,0 km/h (0 Bft) NO 45 9,6 C 10,8 C 0,0 km/h (0 Bft)
06.09.2013 06:14 10,9 C 92 % 1016,1 hPa 0,0 l/m 0,0 km/h (0 Bft) N-NO 22 9,7 C 10,9 C 0,0 km/h (0 Bft)
06.09.2013 06:19 10,6 C 92 % 1016,1 hPa 0,0 l/m 0,0 km/h (0 Bft) N-NO 22 9,4 C 10,8 C 0,0 km/h (0 Bft)
06.09.2013 06:24 10,6 C 92 % 1016,1 hPa 0,0 l/m 0,0 km/h (0 Bft) N-NO 22 9,4 C 10,8 C 0,0 km/h (0 Bft)
06.09.2013 06:29 10,5 C 92 % 1016,1 hPa 0,0 l/m 0,0 km/h (0 Bft) N-NO 22 9,3 C 10,7 C 0,0 km/h (0 Bft)
06.09.2013 06:34 10,6 C 92 % 1016,1 hPa 0,0 l/m 0,0 km/h (0 Bft) NO 45 9,4 C 10,6 C 0,0 km/h (0 Bft)
06.09.2013 06:39 10,9 C 92 % 1016,2 hPa 0,0 l/m 0,0 km/h (0 Bft) O-NO 67 9,7 C 10,8 C 0,0 km/h (0 Bft)
06.09.2013 06:44 10,9 C 92 % 1016,2 hPa 0,0 l/m 0,0 km/h (0 Bft) N-NO 22 9,7 C 10,9 C 0,0 km/h (0 Bft)
06.09.2013 06:49 10,8 C 92 % 1016,2 hPa 0,0 l/m 0,0 km/h (0 Bft) N-NO 22 9,6 C 10,9 C 0,0 km/h (0 Bft)
06.09.2013 06:54 11,1 C 92 % 1016,2 hPa 0,0 l/m 0,0 km/h (0 Bft) N-NO 22 9,8 C 11,0 C 0,0 km/h (0 Bft)
06.09.2013 06:59 10,8 C 92 % 1016,2 hPa 0,0 l/m 0,0 km/h (0 Bft) N-NO 22 9,6 C 11,0 C 0,0 km/h (0 Bft)
06.09.2013 07:04 11,0 C 92 % 1016,2 hPa 0,0 l/m 0,0 km/h (0 Bft) NO 45 9,8 C 11,0 C 0,0 km/h (0 Bft)
06.09.2013 07:09 11,3 C 92 % 1016,2 hPa 0,0 l/m 0,2 km/h (0 Bft) NO 45 10,0 C 11,1 C 0,0 km/h (0 Bft)
06.09.2013 07:14 11,2 C 92 % 1016,2 hPa 0,0 l/m 0,3 km/h (0 Bft) S-SO 157 9,9 C 11,3 C 0,0 km/h (0 Bft)
06.09.2013 07:19 11,1 C 92 % 1016,2 hPa 0,0 l/m 0,2 km/h (0 Bft) O-SO 112 9,8 C 11,4 C 0,0 km/h (0 Bft)
06.09.2013 07:24 10,9 C 92 % 1016,2 hPa 0,0 l/m 0,0 km/h (0 Bft) S-SW 202 9,7 C 11,5 C 0,0 km/h (0 Bft)
06.09.2013 07:29 11,0 C 92 % 1016,2 hPa 0,0 l/m 0,0 km/h (0 Bft) O-SO 112 9,8 C 11,5 C 0,0 km/h (0 Bft)
06.09.2013 07:34 11,5 C 93 % 1016,2 hPa 0,0 l/m 0,0 km/h (0 Bft) N-NO 22 10,4 C 12,2 C 0,0 km/h (0 Bft)
06.09.2013 07:39 11,5 C 93 % 1016,3 hPa 0,0 l/m 0,0 km/h (0 Bft) N-NO 22 10,4 C 12,6 C 0,0 km/h (0 Bft)
06.09.2013 07:44 11,5 C 93 % 1016,3 hPa 0,0 l/m 0,0 km/h (0 Bft) N-NO 22 10,4 C 12,9 C 0,0 km/h (0 Bft)
06.09.2013 07:49 11,6 C 93 % 1016,3 hPa 0,0 l/m 0,0 km/h (0 Bft) N-NO 22 10,5 C 12,7 C 0,0 km/h (0 Bft)
06.09.2013 07:54 11,9 C 93 % 1016,3 hPa 0,0 l/m 0,0 km/h (0 Bft) N-NO 22 10,8 C 12,5 C 0,0 km/h (0 Bft)
06.09.2013 07:59 12,1 C 93 % 1016,2 hPa 0,0 l/m 0,3 km/h (0 Bft) NO 45 11,0 C 12,5 C 1,8 km/h (1 Bft)
06.09.2013 08:04 12,6 C 93 % 1016,2 hPa 0,0 l/m 0,5 km/h (0 Bft) O 90 11,5 C 13,6 C 0,0 km/h (0 Bft)
06.09.2013 08:09 13,3 C 92 % 1016,2 hPa 0,0 l/m 0,3 km/h (0 Bft) NO 45 12,0 C 15,1 C 0,0 km/h (0 Bft)
06.09.2013 08:14 16,0 C 89 % 1016,2 hPa 0,0 l/m 0,2 km/h (0 Bft) NO 45 14,2 C 16,8 C 0,0 km/h (0 Bft)
06.09.2013 08:19 16,8 C 88 % 1016,2 hPa 0,0 l/m 0,0 km/h (0 Bft) O 90 14,8 C 18,0 C 0,0 km/h (0 Bft)
06.09.2013 08:24 17,0 C 86 % 1016,2 hPa 0,0 l/m 0,0 km/h (0 Bft) NO 45 14,6 C 19,4 C 0,0 km/h (0 Bft)
06.09.2013 08:29 17,4 C 85 % 1016,2 hPa 0,0 l/m 0,0 km/h (0 Bft) O-NO 67 14,8 C 19,9 C 0,0 km/h (0 Bft)
06.09.2013 08:34 18,6 C 83 % 1016,2 hPa 0,0 l/m 0,2 km/h (0 Bft) O-SO 112 15,7 C 20,5 C 0,0 km/h (0 Bft)
06.09.2013 08:39 19,4 C 83 % 1016,6 hPa 0,0 l/m 0,2 km/h (0 Bft) O 90 16,4 C 20,8 C 0,0 km/h (0 Bft)
06.09.2013 08:44 20,1 C 79 % 1016,6 hPa 0,0 l/m 0,0 km/h (0 Bft) NO 45 16,3 C 21,6 C 0,0 km/h (0 Bft)
06.09.2013 08:49 20,6 C 77 % 1016,6 hPa 0,0 l/m 0,0 km/h (0 Bft) O-NO 67 16,4 C 22,1 C 0,0 km/h (0 Bft)
06.09.2013 08:54 21,5 C 75 % 1016,6 hPa 0,0 l/m 0,2 km/h (0 Bft) O 90 16,9 C 22,7 C 0,0 km/h (0 Bft)
06.09.2013 08:59 21,6 C 73 % 1016,8 hPa 0,0 l/m 0,2 km/h (0 Bft) O 90 16,5 C 23,1 C 0,0 km/h (0 Bft)
06.09.2013 09:04 21,9 C 69 % 1016,8 hPa 0,0 l/m 0,0 km/h (0 Bft) O 90 15,9 C 24,1 C 0,0 km/h (0 Bft)
06.09.2013 09:09 22,1 C 68 % 1016,8 hPa 0,0 l/m 0,0 km/h (0 Bft) O 90 15,9 C 24,5 C 0,0 km/h (0 Bft)
06.09.2013 09:14 22,2 C 66 % 1016,8 hPa 0,0 l/m 0,2 km/h (0 Bft) O-SO 112 15,5 C 24,9 C 0,0 km/h (0 Bft)
06.09.2013 09:19 22,4 C 66 % 1017,0 hPa 0,0 l/m 0,3 km/h (0 Bft) O-NO 67 15,7 C 25,1 C 2,3 km/h (1 Bft)
06.09.2013 09:24 22,7 C 66 % 1017,0 hPa 0,0 l/m 1,0 km/h (0 Bft) NO 45 16,0 C 24,9 C 1,6 km/h (1 Bft)
06.09.2013 09:29 23,0 C 63 % 1017,0 hPa 0,0 l/m 1,3 km/h (1 Bft) NO 45 15,6 C 24,9 C 2,6 km/h (1 Bft)
06.09.2013 09:34 23,7 C 63 % 1017,0 hPa 0,0 l/m 0,8 km/h (0 Bft) N-NO 22 16,2 C 25,3 C 0,0 km/h (0 Bft)
06.09.2013 09:39 24,2 C 63 % 1017,0 hPa 0,0 l/m 0,3 km/h (0 Bft) O-SO 112 16,7 C 25,8 C 0,0 km/h (0 Bft)
06.09.2013 09:44 25,2 C 62 % 1017,0 hPa 0,0 l/m 0,0 km/h (0 Bft) W-NW 292 17,4 C 27,4 C 0,0 km/h (0 Bft)
06.09.2013 09:49 24,8 C 57 % 1017,0 hPa 0,0 l/m 0,0 km/h (0 Bft) W-SW 247 15,7 C 27,9 C 0,0 km/h (0 Bft)
06.09.2013 09:54 24,5 C 56 % 1017,0 hPa 0,0 l/m 0,0 km/h (0 Bft) O 90 15,1 C 28,4 C 0,0 km/h (0 Bft)
06.09.2013 09:59 25,1 C 55 % 1017,3 hPa 0,0 l/m 0,0 km/h (0 Bft) N-NO 22 15,4 C 28,6 C 0,0 km/h (0 Bft)
06.09.2013 10:04 24,6 C 54 % 1017,3 hPa 0,0 l/m 0,0 km/h (0 Bft) O 90 14,7 C 28,8 C 0,0 km/h (0 Bft)
06.09.2013 10:09 24,7 C 55 % 1017,3 hPa 0,0 l/m 1,6 km/h (1 Bft) W-SW 247 15,0 C 28,4 C 5,1 km/h (1 Bft)
06.09.2013 10:14 25,5 C 52 % 1017,3 hPa 0,0 l/m 3,9 km/h (1 Bft) W-SW 247 14,9 C 27,6 C 4,0 km/h (1 Bft)
06.09.2013 10:19 25,7 C 49 % 1017,5 hPa 0,0 l/m 3,9 km/h (1 Bft) W-SW 247 14,2 C 27,3 C 2,9 km/h (1 Bft)
06.09.2013 10:24 26,2 C 50 % 1017,5 hPa 0,0 l/m 3,7 km/h (1 Bft) S-SO 157 14,9 C 27,4 C 4,5 km/h (1 Bft)
06.09.2013 10:29 26,3 C 49 % 1017,5 hPa 0,0 l/m 3,5 km/h (1 Bft) W-SW 247 14,7 C 27,4 C 3,7 km/h (1 Bft)
06.09.2013 10:34 26,2 C 46 % 1017,5 hPa 0,0 l/m 4,3 km/h (1 Bft) S 180 13,6 C 27,3 C 7,1 km/h (2 Bft)
06.09.2013 10:39 26,3 C 46 % 1017,6 hPa 0,0 l/m 4,7 km/h (1 Bft) S-SW 202 13,7 C 27,1 C 5,8 km/h (2 Bft)
06.09.2013 10:44 26,1 C 43 % 1017,6 hPa 0,0 l/m 4,5 km/h (1 Bft) S 180 12,5 C 26,7 C 6,1 km/h (2 Bft)
06.09.2013 10:49 26,4 C 47 % 1017,6 hPa 0,0 l/m 3,9 km/h (1 Bft) S-SW 202 14,2 C 26,3 C 3,5 km/h (1 Bft)
06.09.2013 10:54 26,3 C 47 % 1017,6 hPa 0,0 l/m 4,0 km/h (1 Bft) S 180 14,1 C 25,6 C 3,4 km/h (1 Bft)
06.09.2013 10:59 26,6 C 45 % 1017,9 hPa 0,0 l/m 4,3 km/h (1 Bft) W-SW 247 13,7 C 25,2 C 4,0 km/h (1 Bft)
06.09.2013 11:04 26,9 C 46 % 1017,9 hPa 0,0 l/m 4,2 km/h (1 Bft) S-SW 202 14,3 C 24,7 C 7,4 km/h (2 Bft)
06.09.2013 11:09 26,6 C 45 % 1017,9 hPa 0,0 l/m 4,5 km/h (1 Bft) S-SW 202 13,7 C 24,6 C 5,1 km/h (1 Bft)
06.09.2013 11:14 26,8 C 44 % 1017,9 hPa 0,0 l/m 4,7 km/h (1 Bft) W-NW 292 13,5 C 24,3 C 6,3 km/h (2 Bft)
06.09.2013 11:19 27,3 C 44 % 1018,6 hPa 0,0 l/m 4,2 km/h (1 Bft) S 180 14,0 C 24,4 C 4,8 km/h (1 Bft)
06.09.2013 11:24 27,1 C 42 % 1018,6 hPa 0,0 l/m 4,7 km/h (1 Bft) N 360 13,1 C 24,7 C 5,6 km/h (1 Bft)
06.09.2013 11:29 27,7 C 43 % 1018,6 hPa 0,0 l/m 4,5 km/h (1 Bft) W 270 14,0 C 25,2 C 4,5 km/h (1 Bft)
06.09.2013 11:34 27,6 C 42 % 1018,6 hPa 0,0 l/m 4,5 km/h (1 Bft) S-SW 202 13,5 C 26,3 C 5,6 km/h (1 Bft)
06.09.2013 11:39 27,8 C 41 % 1018,5 hPa 0,0 l/m 4,8 km/h (1 Bft) W-SW 247 13,3 C 26,8 C 5,3 km/h (1 Bft)
06.09.2013 11:44 27,9 C 42 % 1018,5 hPa 0,0 l/m 4,5 km/h (1 Bft) S-SW 202 13,8 C 27,8 C 3,4 km/h (1 Bft)
06.09.2013 11:49 28,1 C 42 % 1018,5 hPa 0,0 l/m 4,0 km/h (1 Bft) SW 225 14,0 C 28,2 C 3,1 km/h (1 Bft)
06.09.2013 11:54 28,1 C 42 % 1018,5 hPa 0,0 l/m 4,2 km/h (1 Bft) S 180 14,0 C 28,4 C 4,3 km/h (1 Bft)
06.09.2013 11:59 28,1 C 41 % 1018,4 hPa 0,0 l/m 5,1 km/h (1 Bft) S-SW 202 13,6 C 28,3 C 7,6 km/h (2 Bft)
06.09.2013 12:04 27,9 C 43 % 1018,4 hPa 0,0 l/m 5,8 km/h (2 Bft) S 180 14,1 C 28,2 C 6,1 km/h (2 Bft)
06.09.2013 12:09 27,8 C 41 % 1018,4 hPa 0,0 l/m 5,8 km/h (2 Bft) N-NO 22 13,3 C 28,3 C 6,1 km/h (2 Bft)
06.09.2013 12:14 28,3 C 42 % 1018,4 hPa 0,0 l/m 5,8 km/h (2 Bft) S 180 14,1 C 28,3 C 9,2 km/h (2 Bft)
06.09.2013 12:19 27,9 C 42 % 1018,5 hPa 0,0 l/m 6,1 km/h (2 Bft) S 180 13,8 C 28,3 C 5,3 km/h (1 Bft)
06.09.2013 12:24 27,8 C 43 % 1018,5 hPa 0,0 l/m 6,1 km/h (2 Bft) W-SW 247 14,1 C 28,3 C 9,5 km/h (2 Bft)
06.09.2013 12:29 27,8 C 42 % 1018,5 hPa 0,0 l/m 6,0 km/h (2 Bft) S-SW 202 13,7 C 28,3 C 4,8 km/h (1 Bft)
06.09.2013 12:34 28,0 C 44 % 1018,5 hPa 0,0 l/m 5,3 km/h (1 Bft) S-SW 202 14,6 C 28,5 C 3,9 km/h (1 Bft)
06.09.2013 12:39 28,2 C 43 % 1018,4 hPa 0,0 l/m 5,0 km/h (1 Bft) W 270 14,4 C 28,7 C 8,4 km/h (2 Bft)
06.09.2013 12:44 27,6 C 43 % 1018,4 hPa 0,0 l/m 5,1 km/h (1 Bft) S 180 13,9 C 28,6 C 7,7 km/h (2 Bft)
06.09.2013 12:49 27,4 C 42 % 1018,4 hPa 0,0 l/m 5,8 km/h (2 Bft) S-SW 202 13,3 C 28,8 C 10,0 km/h (2 Bft)
06.09.2013 12:54 27,2 C 42 % 1018,4 hPa 0,0 l/m 5,8 km/h (2 Bft) W-SW 247 13,2 C 28,8 C 8,4 km/h (2 Bft)
06.09.2013 12:59 27,2 C 43 % 1018,3 hPa 0,0 l/m 5,5 km/h (1 Bft) SW 225 13,5 C 28,8 C 6,0 km/h (2 Bft)
06.09.2013 13:04 27,2 C 42 % 1018,3 hPa 0,0 l/m 5,1 km/h (1 Bft) S-SO 157 13,2 C 29,1 C 6,6 km/h (2 Bft)
06.09.2013 13:09 27,3 C 42 % 1018,3 hPa 0,0 l/m 5,3 km/h (1 Bft) S 180 13,2 C 29,1 C 5,8 km/h (2 Bft)
06.09.2013 13:14 27,2 C 41 % 1018,3 hPa 0,0 l/m 5,8 km/h (2 Bft) S 180 12,8 C 29,0 C 7,6 km/h (2 Bft)
06.09.2013 13:19 27,3 C 45 % 1018,3 hPa 0,0 l/m 5,5 km/h (1 Bft) S 180 14,3 C 29,0 C 3,9 km/h (1 Bft)
06.09.2013 13:24 27,4 C 44 % 1018,3 hPa 0,0 l/m 5,3 km/h (1 Bft) S 180 14,0 C 29,2 C 10,3 km/h (2 Bft)
06.09.2013 13:29 27,5 C 44 % 1018,3 hPa 0,0 l/m 5,3 km/h (1 Bft) SW 225 14,1 C 29,2 C 6,0 km/h (2 Bft)
06.09.2013 13:34 27,1 C 41 % 1018,3 hPa 0,0 l/m 5,5 km/h (1 Bft) W-NW 292 12,7 C 29,3 C 4,8 km/h (1 Bft)
06.09.2013 13:39 27,4 C 44 % 1018,4 hPa 0,0 l/m 4,8 km/h (1 Bft) S-SO 157 14,0 C 29,3 C 3,5 km/h (1 Bft)
06.09.2013 13:44 27,4 C 41 % 1018,4 hPa 0,0 l/m 5,1 km/h (1 Bft) S-SW 202 13,0 C 29,3 C 5,5 km/h (1 Bft)
06.09.2013 13:49 27,8 C 41 % 1018,4 hPa 0,0 l/m 5,5 km/h (1 Bft) W-SW 247 13,3 C 29,3 C 6,3 km/h (2 Bft)
06.09.2013 13:54 27,7 C 40 % 1018,4 hPa 0,0 l/m 4,8 km/h (1 Bft) S-SW 202 12,9 C 29,6 C 4,8 km/h (1 Bft)
06.09.2013 13:59 27,5 C 40 % 1018,4 hPa 0,0 l/m 5,0 km/h (1 Bft) S 180 12,7 C 29,6 C 5,6 km/h (1 Bft)
06.09.2013 14:04 27,5 C 40 % 1018,4 hPa 0,0 l/m 5,5 km/h (1 Bft) SW 225 12,7 C 29,6 C 6,3 km/h (2 Bft)
06.09.2013 14:09 27,8 C 40 % 1018,4 hPa 0,0 l/m 5,1 km/h (1 Bft) S 180 12,9 C 29,6 C 7,9 km/h (2 Bft)
06.09.2013 14:14 27,9 C 40 % 1018,4 hPa 0,0 l/m 5,1 km/h (1 Bft) S-SO 157 13,0 C 29,6 C 5,3 km/h (1 Bft)
06.09.2013 14:19 28,1 C 38 % 1018,4 hPa 0,0 l/m 4,8 km/h (1 Bft) W 270 12,4 C 29,8 C 6,4 km/h (2 Bft)
06.09.2013 14:24 28,1 C 37 % 1018,4 hPa 0,0 l/m 3,2 km/h (1 Bft) W-SW 247 12,0 C 30,4 C 3,2 km/h (1 Bft)
06.09.2013 14:29 28,0 C 38 % 1018,4 hPa 0,0 l/m 3,9 km/h (1 Bft) S-SW 202 12,3 C 30,6 C 6,4 km/h (2 Bft)
06.09.2013 14:34 28,0 C 38 % 1018,4 hPa 0,0 l/m 4,3 km/h (1 Bft) SW 225 12,3 C 30,4 C 3,5 km/h (1 Bft)
06.09.2013 14:39 28,4 C 39 % 1018,2 hPa 0,0 l/m 3,5 km/h (1 Bft) SW 225 13,1 C 30,8 C 6,0 km/h (2 Bft)
06.09.2013 14:44 27,9 C 38 % 1018,2 hPa 0,0 l/m 4,0 km/h (1 Bft) S 180 12,2 C 30,7 C 5,3 km/h (1 Bft)
06.09.2013 14:49 27,7 C 37 % 1018,2 hPa 0,0 l/m 4,7 km/h (1 Bft) S-SW 202 11,7 C 30,6 C 7,7 km/h (2 Bft)
06.09.2013 14:54 27,7 C 39 % 1018,2 hPa 0,0 l/m 4,3 km/h (1 Bft) W 270 12,5 C 30,4 C 3,5 km/h (1 Bft)
06.09.2013 14:59 27,6 C 37 % 1018,3 hPa 0,0 l/m 4,8 km/h (1 Bft) S-SW 202 11,6 C 30,4 C 5,3 km/h (1 Bft)
06.09.2013 15:04 27,6 C 36 % 1018,3 hPa 0,0 l/m 3,5 km/h (1 Bft) W-SW 247 11,2 C 30,9 C 8,7 km/h (2 Bft)
06.09.2013 15:09 27,6 C 36 % 1018,3 hPa 0,0 l/m 4,0 km/h (1 Bft) SW 225 11,2 C 30,5 C 6,3 km/h (2 Bft)
06.09.2013 15:14 27,3 C 37 % 1018,3 hPa 0,0 l/m 5,6 km/h (1 Bft) S 180 11,3 C 30,1 C 5,6 km/h (1 Bft)
06.09.2013 15:19 27,1 C 38 % 1018,2 hPa 0,0 l/m 5,0 km/h (1 Bft) S-SO 157 11,5 C 30,3 C 4,5 km/h (1 Bft)
06.09.2013 15:24 26,4 C 36 % 1018,2 hPa 0,0 l/m 4,2 km/h (1 Bft) W 270 10,1 C 30,5 C 7,2 km/h (2 Bft)
06.09.2013 15:29 26,6 C 37 % 1018,2 hPa 0,0 l/m 4,8 km/h (1 Bft) S-SW 202 10,7 C 30,2 C 6,9 km/h (2 Bft)
06.09.2013 15:34 26,3 C 37 % 1018,2 hPa 0,0 l/m 5,3 km/h (1 Bft) W-NW 292 10,4 C 29,9 C 5,5 km/h (1 Bft)
06.09.2013 15:39 26,5 C 38 % 1018,2 hPa 0,0 l/m 4,5 km/h (1 Bft) N-NW 337 11,0 C 30,1 C 5,1 km/h (1 Bft)
06.09.2013 15:44 26,4 C 39 % 1018,2 hPa 0,0 l/m 3,1 km/h (1 Bft) W-SW 247 11,3 C 30,9 C 2,6 km/h (1 Bft)
06.09.2013 15:49 26,6 C 39 % 1018,2 hPa 0,0 l/m 3,2 km/h (1 Bft) S-SW 202 11,5 C 30,9 C 3,2 km/h (1 Bft)
06.09.2013 15:54 26,7 C 38 % 1018,2 hPa 0,0 l/m 3,4 km/h (1 Bft) SW 225 11,2 C 31,1 C 3,5 km/h (1 Bft)
06.09.2013 15:59 26,7 C 40 % 1018,1 hPa 0,0 l/m 3,4 km/h (1 Bft) W-SW 247 12,0 C 31,1 C 3,2 km/h (1 Bft)
06.09.2013 16:04 26,6 C 42 % 1018,1 hPa 0,0 l/m 3,4 km/h (1 Bft) N-NW 337 12,6 C 31,4 C 4,2 km/h (1 Bft)
06.09.2013 16:09 26,2 C 40 % 1018,1 hPa 0,0 l/m 2,4 km/h (1 Bft) W 270 11,5 C 31,6 C 3,1 km/h (1 Bft)
06.09.2013 16:14 26,4 C 40 % 1018,1 hPa 0,0 l/m 2,7 km/h (1 Bft) S 180 11,7 C 31,9 C 4,7 km/h (1 Bft)
06.09.2013 16:19 26,7 C 40 % 1018,1 hPa 0,0 l/m 3,4 km/h (1 Bft) S 180 12,0 C 31,7 C 4,8 km/h (1 Bft)
06.09.2013 16:24 27,0 C 38 % 1018,1 hPa 0,0 l/m 3,5 km/h (1 Bft) W-SW 247 11,5 C 31,8 C 4,2 km/h (1 Bft)
06.09.2013 16:29 27,0 C 38 % 1018,1 hPa 0,0 l/m 3,7 km/h (1 Bft) S 180 11,5 C 31,9 C 6,0 km/h (2 Bft)
06.09.2013 16:34 27,0 C 40 % 1018,1 hPa 0,0 l/m 2,9 km/h (1 Bft) S-SO 157 12,2 C 32,3 C 2,4 km/h (1 Bft)
06.09.2013 16:39 26,8 C 44 % 1018,0 hPa 0,0 l/m 3,2 km/h (1 Bft) W 270 13,5 C 32,7 C 4,8 km/h (1 Bft)
06.09.2013 16:44 26,1 C 48 % 1018,0 hPa 0,0 l/m 4,2 km/h (1 Bft) S-SW 202 14,2 C 31,5 C 4,0 km/h (1 Bft)
06.09.2013 16:49 25,6 C 49 % 1018,0 hPa 0,0 l/m 4,3 km/h (1 Bft) W 270 14,1 C 30,5 C 4,3 km/h (1 Bft)
06.09.2013 16:54 25,0 C 53 % 1018,0 hPa 0,0 l/m 4,3 km/h (1 Bft) W 270 14,7 C 29,3 C 5,1 km/h (1 Bft)
06.09.2013 16:59 24,5 C 55 % 1018,0 hPa 0,0 l/m 3,5 km/h (1 Bft) S-SW 202 14,9 C 28,6 C 0,0 km/h (0 Bft)
06.09.2013 17:04 24,4 C 58 % 1018,0 hPa 0,0 l/m 2,4 km/h (1 Bft) N-NW 337 15,6 C 28,3 C 1,9 km/h (1 Bft)
06.09.2013 17:09 24,2 C 58 % 1018,0 hPa 0,0 l/m 1,8 km/h (1 Bft) N 360 15,4 C 28,8 C 2,9 km/h (1 Bft)
06.09.2013 17:14 24,1 C 58 % 1018,0 hPa 0,0 l/m 2,1 km/h (1 Bft) O-SO 112 15,3 C 29,1 C 0,0 km/h (0 Bft)
06.09.2013 17:19 23,5 C 62 % 1017,8 hPa 0,0 l/m 2,7 km/h (1 Bft) N 360 15,8 C 28,1 C 3,7 km/h (1 Bft)
06.09.2013 17:24 23,4 C 62 % 1017,8 hPa 0,0 l/m 2,1 km/h (1 Bft) O-SO 112 15,7 C 27,1 C 3,4 km/h (1 Bft)
06.09.2013 17:29 23,3 C 63 % 1017,8 hPa 0,0 l/m 2,3 km/h (1 Bft) N 360 15,9 C 26,9 C 7,6 km/h (2 Bft)
06.09.2013 17:34 23,2 C 63 % 1017,8 hPa 0,0 l/m 2,1 km/h (1 Bft) O 90 15,8 C 26,3 C 3,2 km/h (1 Bft)
06.09.2013 17:39 23,2 C 63 % 1017,2 hPa 0,0 l/m 1,6 km/h (1 Bft) O 90 15,8 C 25,9 C 3,1 km/h (1 Bft)
06.09.2013 17:44 23,1 C 63 % 1017,2 hPa 0,0 l/m 1,8 km/h (1 Bft) O-NO 67 15,7 C 25,5 C 1,6 km/h (1 Bft)
06.09.2013 17:49 23,2 C 63 % 1017,2 hPa 0,0 l/m 1,1 km/h (1 Bft) O-NO 67 15,8 C 25,4 C 0,0 km/h (0 Bft)
06.09.2013 17:54 23,1 C 64 % 1017,2 hPa 0,0 l/m 1,1 km/h (1 Bft) O 90 15,9 C 25,4 C 1,8 km/h (1 Bft)
06.09.2013 17:59 23,2 C 63 % 1017,2 hPa 0,0 l/m 1,3 km/h (1 Bft) NO 45 15,8 C 25,4 C 0,0 km/h (0 Bft)
06.09.2013 18:04 23,1 C 63 % 1017,2 hPa 0,0 l/m 0,6 km/h (0 Bft) NO 45 15,7 C 26,3 C 0,0 km/h (0 Bft)
06.09.2013 18:09 22,9 C 65 % 1017,2 hPa 0,0 l/m 0,5 km/h (0 Bft) O 90 16,0 C 26,1 C 2,1 km/h (1 Bft)
06.09.2013 18:14 22,7 C 65 % 1017,2 hPa 0,0 l/m 1,1 km/h (1 Bft) NO 45 15,8 C 25,7 C 2,1 km/h (1 Bft)
06.09.2013 18:19 22,4 C 66 % 1017,0 hPa 0,0 l/m 1,3 km/h (1 Bft) O-NO 67 15,7 C 25,4 C 2,4 km/h (1 Bft)
06.09.2013 18:24 22,4 C 66 % 1017,0 hPa 0,0 l/m 1,0 km/h (0 Bft) O-NO 67 15,7 C 25,2 C 0,0 km/h (0 Bft)
06.09.2013 18:29 22,3 C 66 % 1017,0 hPa 0,0 l/m 0,8 km/h (0 Bft) O-NO 67 15,6 C 25,1 C 2,1 km/h (1 Bft)
06.09.2013 18:34 22,0 C 67 % 1017,0 hPa 0,0 l/m 1,4 km/h (1 Bft) O-NO 67 15,6 C 24,4 C 2,4 km/h (1 Bft)
06.09.2013 18:39 21,6 C 69 % 1017,2 hPa 0,0 l/m 1,9 km/h (1 Bft) O-NO 67 15,7 C 23,8 C 2,7 km/h (1 Bft)
06.09.2013 18:44 21,3 C 70 % 1017,2 hPa 0,0 l/m 2,1 km/h (1 Bft) W-SW 247 15,6 C 23,0 C 2,4 km/h (1 Bft)
06.09.2013 18:49 21,2 C 71 % 1017,2 hPa 0,0 l/m 2,6 km/h (1 Bft) O-NO 67 15,7 C 22,6 C 3,2 km/h (1 Bft)
06.09.2013 18:54 21,0 C 73 % 1017,2 hPa 0,0 l/m 3,2 km/h (1 Bft) NO 45 16,0 C 22,0 C 2,9 km/h (1 Bft)
06.09.2013 18:59 20,8 C 75 % 1017,4 hPa 0,0 l/m 3,2 km/h (1 Bft) O 90 16,2 C 22,0 C 4,0 km/h (1 Bft)
06.09.2013 19:04 20,4 C 76 % 1017,4 hPa 0,0 l/m 3,2 km/h (1 Bft) O 90 16,0 C 21,6 C 3,5 km/h (1 Bft)
06.09.2013 19:09 20,2 C 76 % 1017,4 hPa 0,0 l/m 3,5 km/h (1 Bft) NO 45 15,8 C 21,2 C 2,9 km/h (1 Bft)
06.09.2013 19:14 20,0 C 76 % 1017,4 hPa 0,0 l/m 3,1 km/h (1 Bft) O-SO 112 15,6 C 20,7 C 2,1 km/h (1 Bft)
06.09.2013 19:19 20,0 C 76 % 1017,5 hPa 0,0 l/m 2,9 km/h (1 Bft) NO 45 15,6 C 20,4 C 4,2 km/h (1 Bft)
06.09.2013 19:24 20,0 C 76 % 1017,5 hPa 0,0 l/m 3,5 km/h (1 Bft) NO 45 15,6 C 20,3 C 4,8 km/h (1 Bft)
06.09.2013 19:29 20,1 C 76 % 1017,5 hPa 0,0 l/m 4,3 km/h (1 Bft) NO 45 15,7 C 20,2 C 4,5 km/h (1 Bft)
06.09.2013 19:34 19,9 C 76 % 1017,5 hPa 0,0 l/m 4,0 km/h (1 Bft) O 90 15,5 C 20,0 C 2,7 km/h (1 Bft)
06.09.2013 19:39 19,6 C 76 % 1017,4 hPa 0,0 l/m 3,1 km/h (1 Bft) NO 45 15,2 C 19,9 C 0,0 km/h (0 Bft)
06.09.2013 19:44 19,1 C 77 % 1017,4 hPa 0,0 l/m 2,1 km/h (1 Bft) O 90 15,0 C 19,5 C 3,1 km/h (1 Bft)
06.09.2013 19:49 19,0 C 78 % 1017,4 hPa 0,0 l/m 2,1 km/h (1 Bft) O 90 15,1 C 19,4 C 1,8 km/h (1 Bft)
06.09.2013 19:54 18,8 C 79 % 1017,4 hPa 0,0 l/m 2,4 km/h (1 Bft) O-NO 67 15,1 C 19,0 C 3,2 km/h (1 Bft)
06.09.2013 19:59 18,7 C 79 % 1017,3 hPa 0,0 l/m 2,6 km/h (1 Bft) O-NO 67 15,0 C 18,9 C 3,4 km/h (1 Bft)
06.09.2013 20:04 18,7 C 79 % 1017,3 hPa 0,0 l/m 2,7 km/h (1 Bft) O-SO 112 15,0 C 18,5 C 3,2 km/h (1 Bft)
06.09.2013 20:09 18,6 C 79 % 1017,3 hPa 0,0 l/m 2,6 km/h (1 Bft) O 90 14,9 C 18,4 C 2,9 km/h (1 Bft)
06.09.2013 20:14 18,3 C 81 % 1017,3 hPa 0,0 l/m 2,4 km/h (1 Bft) O 90 15,0 C 18,2 C 2,6 km/h (1 Bft)
06.09.2013 20:19 18,3 C 80 % 1017,8 hPa 0,0 l/m 2,6 km/h (1 Bft) O 90 14,8 C 18,1 C 3,5 km/h (1 Bft)
06.09.2013 20:24 18,1 C 80 % 1017,8 hPa 0,0 l/m 2,7 km/h (1 Bft) O 90 14,6 C 18,1 C 3,9 km/h (1 Bft)
06.09.2013 20:29 18,3 C 81 % 1017,8 hPa 0,0 l/m 3,1 km/h (1 Bft) O 90 15,0 C 18,3 C 3,5 km/h (1 Bft)
06.09.2013 20:34 18,3 C 80 % 1017,8 hPa 0,0 l/m 1,9 km/h (1 Bft) O-SO 112 14,8 C 18,4 C 0,0 km/h (0 Bft)
06.09.2013 20:39 18,3 C 80 % 1018,0 hPa 0,0 l/m 1,0 km/h (0 Bft) O 90 14,8 C 18,5 C 2,1 km/h (1 Bft)
06.09.2013 20:44 18,4 C 80 % 1018,0 hPa 0,0 l/m 0,3 km/h (0 Bft) O 90 14,9 C 18,5 C 0,0 km/h (0 Bft)
06.09.2013 20:49 18,3 C 80 % 1018,0 hPa 0,0 l/m 0,6 km/h (0 Bft) O 90 14,8 C 18,5 C 1,8 km/h (1 Bft)
06.09.2013 20:54 18,3 C 80 % 1018,0 hPa 0,0 l/m 1,1 km/h (1 Bft) O-SO 112 14,8 C 18,4 C 0,0 km/h (0 Bft)
06.09.2013 20:59 18,1 C 80 % 1017,9 hPa 0,0 l/m 0,6 km/h (0 Bft) O 90 14,6 C 18,3 C 0,0 km/h (0 Bft)
06.09.2013 21:04 18,1 C 80 % 1017,9 hPa 0,0 l/m 0,2 km/h (0 Bft) O-SO 112 14,6 C 18,3 C 0,0 km/h (0 Bft)
06.09.2013 21:09 18,2 C 80 % 1017,9 hPa 0,0 l/m 0,3 km/h (0 Bft) O 90 14,7 C 18,3 C 0,0 km/h (0 Bft)
06.09.2013 21:14 18,0 C 80 % 1017,9 hPa 0,0 l/m 0,2 km/h (0 Bft) O-SO 112 14,5 C 18,2 C 0,0 km/h (0 Bft)
06.09.2013 21:19 17,9 C 80 % 1018,0 hPa 0,0 l/m 0,0 km/h (0 Bft) O 90 14,4 C 18,1 C 0,0 km/h (0 Bft)
06.09.2013 21:24 18,0 C 80 % 1018,0 hPa 0,0 l/m 0,0 km/h (0 Bft) NO 45 14,5 C 18,1 C 0,0 km/h (0 Bft)
06.09.2013 21:29 17,9 C 80 % 1018,0 hPa 0,0 l/m 0,0 km/h (0 Bft) NO 45 14,4 C 18,1 C 0,0 km/h (0 Bft)
06.09.2013 21:34 17,7 C 80 % 1018,0 hPa 0,0 l/m 0,0 km/h (0 Bft) NO 45 14,2 C 18,0 C 0,0 km/h (0 Bft)
06.09.2013 21:39 17,7 C 80 % 1018,1 hPa 0,0 l/m 0,0 km/h (0 Bft) NO 45 14,2 C 17,9 C 0,0 km/h (0 Bft)
06.09.2013 21:44 17,4 C 80 % 1018,1 hPa 0,0 l/m 0,0 km/h (0 Bft) NO 45 13,9 C 17,7 C 0,0 km/h (0 Bft)
06.09.2013 21:49 17,5 C 81 % 1018,1 hPa 0,0 l/m 0,0 km/h (0 Bft) NO 45 14,2 C 17,7 C 0,0 km/h (0 Bft)
06.09.2013 21:54 17,6 C 81 % 1018,1 hPa 0,0 l/m 0,5 km/h (0 Bft) O-SO 112 14,3 C 17,9 C 1,8 km/h (1 Bft)
06.09.2013 21:59 17,6 C 81 % 1018,2 hPa 0,0 l/m 0,5 km/h (0 Bft) S-SW 202 14,3 C 18,0 C 0,0 km/h (0 Bft)
06.09.2013 22:04 17,6 C 81 % 1018,2 hPa 0,0 l/m 0,6 km/h (0 Bft) O-SO 112 14,3 C 18,1 C 1,8 km/h (1 Bft)
06.09.2013 22:09 17,6 C 80 % 1018,2 hPa 0,0 l/m 0,5 km/h (0 Bft) S-SO 157 14,1 C 18,2 C 0,0 km/h (0 Bft)
06.09.2013 22:14 17,5 C 80 % 1018,2 hPa 0,0 l/m 0,2 km/h (0 Bft) O-NO 67 14,0 C 18,1 C 0,0 km/h (0 Bft)
06.09.2013 22:19 17,5 C 80 % 1018,1 hPa 0,0 l/m 0,0 km/h (0 Bft) O-SO 112 14,0 C 18,0 C 0,0 km/h (0 Bft)
06.09.2013 22:24 17,4 C 80 % 1018,1 hPa 0,0 l/m 0,0 km/h (0 Bft) O-SO 112 13,9 C 17,9 C 0,0 km/h (0 Bft)
06.09.2013 22:29 17,4 C 80 % 1018,1 hPa 0,0 l/m 0,0 km/h (0 Bft) W 270 13,9 C 17,9 C 0,0 km/h (0 Bft)
06.09.2013 22:34 17,3 C 80 % 1018,1 hPa 0,0 l/m 0,6 km/h (0 Bft) N-NO 22 13,8 C 17,9 C 0,0 km/h (0 Bft)
06.09.2013 22:39 17,3 C 80 % 1018,1 hPa 0,0 l/m 0,6 km/h (0 Bft) S-SW 202 13,8 C 17,9 C 2,1 km/h (1 Bft)
06.09.2013 22:44 17,3 C 80 % 1018,1 hPa 0,0 l/m 0,2 km/h (0 Bft) S 180 13,8 C 18,0 C 0,0 km/h (0 Bft)
06.09.2013 22:49 17,4 C 80 % 1018,1 hPa 0,0 l/m 0,3 km/h (0 Bft) O 90 13,9 C 18,1 C 0,0 km/h (0 Bft)
06.09.2013 22:54 17,6 C 80 % 1018,1 hPa 0,0 l/m 0,2 km/h (0 Bft) O 90 14,1 C 18,1 C 0,0 km/h (0 Bft)
06.09.2013 22:59 17,6 C 80 % 1018,1 hPa 0,0 l/m 0,0 km/h (0 Bft) SO 135 14,1 C 18,0 C 0,0 km/h (0 Bft)
06.09.2013 23:04 17,8 C 80 % 1018,1 hPa 0,0 l/m 0,2 km/h (0 Bft) O-SO 112 14,3 C 18,0 C 0,0 km/h (0 Bft)
06.09.2013 23:09 17,8 C 79 % 1018,1 hPa 0,0 l/m 0,3 km/h (0 Bft) NO 45 14,1 C 18,0 C 0,0 km/h (0 Bft)
06.09.2013 23:14 17,7 C 79 % 1018,1 hPa 0,0 l/m 0,3 km/h (0 Bft) O 90 14,0 C 17,9 C 2,3 km/h (1 Bft)
06.09.2013 23:19 17,6 C 79 % 1017,9 hPa 0,0 l/m 0,3 km/h (0 Bft) NO 45 13,9 C 17,7 C 0,0 km/h (0 Bft)
06.09.2013 23:24 17,3 C 80 % 1017,9 hPa 0,0 l/m 0,3 km/h (0 Bft) N-NO 22 13,8 C 17,3 C 3,1 km/h (1 Bft)
06.09.2013 23:29 17,2 C 81 % 1017,9 hPa 0,0 l/m 0,3 km/h (0 Bft) S 180 13,9 C 17,2 C 0,0 km/h (0 Bft)
06.09.2013 23:34 17,0 C 81 % 1017,9 hPa 0,0 l/m 0,3 km/h (0 Bft) O 90 13,7 C 16,9 C 0,0 km/h (0 Bft)
06.09.2013 23:39 16,9 C 82 % 1018,2 hPa 0,0 l/m 0,0 km/h (0 Bft) O 90 13,8 C 16,8 C 0,0 km/h (0 Bft)
06.09.2013 23:44 16,8 C 84 % 1018,2 hPa 0,0 l/m 0,0 km/h (0 Bft) O-NO 67 14,1 C 16,7 C 0,0 km/h (0 Bft)
06.09.2013 23:49 16,6 C 84 % 1018,2 hPa 0,0 l/m 0,0 km/h (0 Bft) O-NO 67 13,9 C 16,5 C 0,0 km/h (0 Bft)
06.09.2013 23:54 16,5 C 87 % 1018,2 hPa 0,0 l/m 0,3 km/h (0 Bft) N-NO 22 14,3 C 16,4 C 2,1 km/h (1 Bft)
06.09.2013 23:59 16,4 C 88 % 1017,9 hPa 0,0 l/m 0,6 km/h (0 Bft) O-NO 67 14,4 C 16,4 C 0,0 km/h (0 Bft)
_ Min-Zeit 05:29 15:24 06:34 - 23:49 - - 05:29 05:44 23:59
Minimum _ 10,2 C 36 % 1016,1 hPa - 0,0 km/h (0 Bft) - - 9,0 C 10,5 C 0,0 km/h (0 Bft)
_ Max-Zeit 14:39 08:04 11:34 23:59 12:24 - - 09:44 16:39 13:24
Maximum _ 28,4 C 93 % 1018,6 hPa 0,0 l/m 6,1 km/h
W-SW (2 Bft)
- - 17,4 C 32,7 C 10,3 km/h
S (2 Bft)
Durchschnitt _ 19,0 C 71 % 1017,5 hPa #0,0 l/m 1,7 km/h (1 Bft) S - 12,7 C 20,1 C 2,0 km/h (1 Bft)